Location: Bratislava
(0.0000°N, 17.1167°E)
Time: 04:10:27
(UTC+01:00)

CCE 1 Rocket - Pass Details

Date: 24 January 2021
Orbit: 544 x 3982 km, 28.9° (Epoch: 06 March)

Event Time Altitude Azimuth Distance (km) Brightness Sun altitude
Rises 19:14:18 0° 305° (NW) 4,272 8.4 -16.6°
Reaches altitude 10° 19:17:55 10° 308° (NW) 2,836 7.3 -17.5°
Maximum altitude 19:24:02 62° 28° (NNE) 789 3.8 -18.9°
Enters shadow 19:25:27 40° 90° (E) 954 4.0 -19.3°
